THOR ABLESTAR DEB

Satellite information

Favourite Embed

Satellite Type and Status

DEBRISIN ORBIT

Key statistics

Satellite THOR ABLESTAR DEB at a glance.

Uptime

23384

Days in orbit

Revolutions

≈ 14.2

Per day

Orbit

LEO

Low Earth Orbit

Inclination

66.3

Latest

Satellite identification and parameters

Extended collection of information and parameters for THOR ABLESTAR DEB.

Object identification

Identified? True

Debris? True

Object name: THOR ABLESTAR DEB

International designator: 1961-015JV

Object number (NORAD): 5746

Object ID (CCSDS): 5746

Country: UNITED STATES OF AMERICA (US)

Current information (Y/N): Y

RCS size: SMALL

Orbital parameters

Period: 101.598 minutes

Inclination: 66.3057 deg

SMA: 7212.467 km

Apoapsis: 872.414 km

Periapsis: 796.25 km

RAAN: 358.3033 deg

Eccentricy: 0.00528

Argument of periapsis: 255.5195 deg

Mean anomaly: 104.0032 deg

Mean motion: 14.17349706 rev/day

Mean motion (dot): 0.00001566 rev/day2

B* drag term: 0.00080434 1/REarth

Two-line elements (TLE)

Creation date: July 6, 2025, 4:10 a.m.

Reference frame: TEME

Reference center: EARTH

Epoch: July 5, 2025, 8:40 p.m. UTC

TLE line 0: 0 THOR ABLESTAR DEB

TLE line 1: 1 05746U 61015JV 25186.86144744 .00001566 00000-0 80434-3 0 9995

TLE line 2: 2 05746 66.3057 358.3033 0052800 255.5195 104.0032 14.17349706233216

Live tracking on map

Real-time ground track for satellite THOR ABLESTAR DEB.

In-orbit conjunctions

A list of the most updated potential collisions computed for object THOR ABLESTAR DEB.

Target Orbit TCA Probability of collision Miss distance Type
SL-6 R/B SSO 2025-06-10 14:09:25 0.0001173755 348.0 (m) ROCKET BODY
CZ-6A DEB LEO 2024-12-16 15:05:52 0.0001155626 467.0 (m) DEBRIS
COSMOS 158 LEO 2024-12-14 11:30:16 0.000560832 314.0 (m) PAYLOAD
COSMOS 1375 DEB LEO 2024-07-19 07:04:31 0.0003904917 86.0 (m) DEBRIS

Associated space launch

THOR ABLESTAR DEB was lifted into orbit during the mission ‘Thor DM-21 Ablestar | Transit 4A & Injun-1 & Solrad 3’, on board a Thor DM-21 Ablestar space rocket.

The launch took place on June 29, 1961, 4:23 a.m. from Space Launch Complex 17B.

For more information about the launch, click the button.

Launch to space Thor DM-21 Ablestar | Transit 4A & Injun-1 & Solrad 3
Thor DM-21 Ablestar | Transit 4A & Injun-1 & Solrad 3

Agency: N/A

Status: Launch Successful

Launch date: June 29, 1961, 4:23 a.m. UTC

Rocket: Thor DM-21 Ablestar

Launch pad: Space Launch Complex 17B

Location: Cape Canaveral SFS, FL, USA

...

Latest news about this satellite

There are no fresh news available about this satellite. Check back as we update our databases every day.


Newsletter sign-up

Weekly statistics, charts and insights to help you stay on top of the space industry.